Regional Weather Roundup
Issued by NWS

Home | Current Version | Previous Version | Graphics & Text | Print | Product List | Glossary On
Versions: 1 2 3 4 5 6 7 8 9 10 11 12 13 14 15 16 17 18 19 20 21 22 23 24 25 26 27
000
ASUS45 KBOU 290407
RWRCO

WEATHER ROUNDUP FOR COLORADO
NATIONAL WEATHER SERVICE DENVER/BOULDER CO
1000 PM MDT THU APR 28 2016

NOTE: "FAIR" INDICATES FEW OR NO CLOUDS BELOW 12000 FEET WITH NO
SIGNIFICANT WEATHER AND/OR OBSTRUCTIONS TO VISIBILITY.

COZ001>005-013-030-031-290500-
...NORTHWEST COLORADO...

CITY           SKY/WX    TMP DP  RH WIND       PRES   REMARKS
CRAIG          FAIR      35  32  88 SW6       29.93R WCI  30
HAYDEN         FAIR      34  30  86 E6        29.92S WCI  29
MEEKER         CLOUDY    41  35  79 E6        29.90R
MOUNT WERNER   NOT AVBL
STEAMBOAT SPGS FAIR      32  32  99 CALM      29.92R
WALDEN         FAIR      30  27  86 W6        29.97F WCI  24
$$

COZ006>008-011-290500-
...WEST CENTRAL VALLEYS...

CITY           SKY/WX    TMP DP  RH WIND       PRES   REMARKS
GRAND JUNCTION FAIR      44  39  82 CALM      29.80S
MONTROSE       FAIR      44  35  70 E12       29.86S
EAGLE          CLOUDY    43  37  81 W6        29.91S
RIFLE          LGT RAIN  47  36  65 NW8       29.85R
DELTA          NOT AVBL
NUCLA          NOT AVBL
$$

COZ017>023-064>068-290500-
...SOUTHWEST COLORADO...

CITY           SKY/WX    TMP DP  RH WIND       PRES   REMARKS
DURANGO        FAIR      44  23  43 NE3       29.85R
CORTEZ         FAIR      40  33  76 CALM      29.84R
PAGOSA SPRINGS CLOUDY    46  17  31 W6        29.88R
TELLURIDE      CLOUDY    38  24  59 SE7G20    29.93R
WOLF CREEK PAS NOT AVBL
$$

COZ009-010-012-014-032>034-037-058>063-290500-
...CENTRAL COLORADO...

CITY           SKY/WX    TMP DP  RH WIND       PRES   REMARKS
ASPEN          MOCLDY    38  31  76 SE7       29.90R
BUENA VISTA    LGT SNOW  32  31  96 E3        29.99S VSB 1
COPPER MTN     NOT AVBL
BERTHOUD PASS  HAZE      16   7  67 E22       30.03R VSB<1/4 WCI  -2
COTTONWOOD PAS SNOW      32  30  93 E3        30.00S VSB 1/2
GUNNISON       FAIR      39  30  70 NE8       29.92R
KREMMLING      CLOUDY    36  30  80 CALM      29.96R
LEADVILLE      LGT SNOW  27  26  96 CALM      29.97R FOG
MONARCH PASS   CLOUDY    21  19  93 E16       30.10S VSB 1/4 WCI   7
SALIDA         CLOUDY    33  32  98 SE3       30.06F
SUNLIGHT       CLOUDY    32  30  93 CALM      30.00R FOG
WILKERSON PASS LGT SNOW  25  23  93 S9        30.05R VSB 1   WCI  15
$$

COZ069>075-290500-
...SAN LUIS VALLEY/SANGRE DE CRISTO MOUNTAINS...

CITY           SKY/WX    TMP DP  RH WIND       PRES   REMARKS
ALAMOSA        CLOUDY    41  34  76 NE13      29.88R
LA VETA PASS   CLOUDY    27  23  86 MISG      30.00F VSB 3/4
SAGUACHE       DRIZZLE   37  36  93 SE7       29.94R
$$

COZ035-036-038>040-290500-
...NORTHERN COLORADO FRONT RANGE...

CITY           SKY/WX    TMP DP  RH WIND       PRES   REMARKS
DENVER INTL AP CLOUDY    37  32  82 NE10      30.04R
DMNS CITY PARK   N/A     38  36  93 N6        30.05R
AURORA         CLOUDY    37  36  95 E8        30.04R
FRONT RANGE AP NOT AVBL
ERIE MUNI ARPT DRIZZLE   37  37  97 N6        30.05S
BOULDER MUN AP DRIZZLE   36  36 100 NE5       30.06R
CENTENNIAL     CLOUDY    37  34  89 SE8       30.03R
BROOMFIELD     DRIZZLE   37  36  93 N8        30.05R
FORT COLLINS   CLOUDY    37  34  87 E12       30.07R
LONGMONT       CLOUDY    40  37  91 E5        30.08R FOG
$$

COZ041-046-047-076>085-087-088-290500-
...PIKES PEAK/PALMER DIVIDE AND SOUTHERN FOOTHILLS...

CITY           SKY/WX    TMP DP  RH WIND       PRES   REMARKS
COLO. SPRINGS  LGT RAIN  36  33  89 E7        30.03R
A. F. ACADEMY  FLURRIES  36  32  87 SE1       30.02R
SCHRIEVER AFB  NOT AVBL
ELLICOTT       NOT AVBL
FALCON         DRIZZLE   33  33  99 E8        30.04R WCI  26
FORT CARSON    LGT RAIN  38  34  87 W5        30.02R
LIMON          CLOUDY    37  32  82 E14       30.03R
MONUMENT HILL  CLOUDY    32  32 100 NE5       30.04R WCI  27
TRINIDAD       LGT RAIN  37  34  89 N9        29.98F
$$

COZ042>045-048>051-090-091-290500-
...NORTHEAST COLORADO...

CITY           SKY/WX    TMP DP  RH WIND       PRES   REMARKS
GREELEY ARPT   CLOUDY    37  36  93 E6        30.07S
AKRON          CLOUDY    38  34  85 NE8       30.06S
BURLINGTON     CLOUDY    43  36  76 NE13      30.06R
WRAY           NOT AVBL
STERLING       CLOUDY    41  34  75 CALM      30.08R
HOLYOKE        NOT AVBL
FORT MORGAN    CLOUDY    38  34  84 NE8       30.07S
$$

COZ086-089-092>099-290500-
...SOUTHEAST COLORADO...

CITY           SKY/WX    TMP DP  RH WIND       PRES   REMARKS
PUEBLO         LGT RAIN  43  37  79 NW6       30.01R
LA JUNTA       CLOUDY    47  39  74 E13       30.00R
LAMAR          RAIN      46  41  82 E10       30.00R
SPRINGFIELD      N/A     47  35  63 NE24G31   29.96R
$$




USA.gov is the U.S. government's official web portal to all federal, state and local government web resources and services.